EWG0227 EDDS-GMMN

Flight info

Callsign EWG0227
Flight time N/A
Altitude 35000
Route ROTWE5B/25 ROTWE DCT NATOR N869 NINTU DCT PIMAK DCT TITVA DCT GAI DCT PERDU DCT EXEMU N869 NASOS L27 BLN N869 MGA M985 PIMOS N869 GALTO UB11 TUSOR
Aircraft A21N/M-SDE2E3FGHIRWXY/LB1

Departure

Time 2026-05-07 14:54
Airport Stuttgart Airport (EDDS)

Arrival

Time N/A
Airport Mohammed V International Airport (GMMN)
Time Latitude Longitude Altitude Speed Heading
2026-05-07 14:34 48.68929 9.19579 1310 ft 0 kts 344°
2026-05-07 14:40 48.68921 9.19582 1310 ft 2 kts 344°
2026-05-07 14:40 48.68908 9.19588 1309 ft 2 kts 344°
2026-05-07 14:40 48.68895 9.19594 1309 ft 2 kts 344°
2026-05-07 14:41 48.68879 9.19599 1308 ft 2 kts
2026-05-07 14:41 48.68864 9.19595 1308 ft 2 kts 23°
2026-05-07 14:41 48.68852 9.19583 1308 ft 2 kts 43°
2026-05-07 14:41 48.68842 9.19566 1309 ft 2 kts 63°
2026-05-07 14:42 48.68839 9.19555 1309 ft 1 kts 73°
2026-05-07 14:42 48.68838 9.19545 1309 ft 0 kts 74°
2026-05-07 14:45 48.68839 9.19552 1309 ft 2 kts 74°
2026-05-07 14:45 48.68850 9.19610 1307 ft 8 kts 74°
2026-05-07 14:45 48.68870 9.19718 1304 ft 13 kts 73°
2026-05-07 14:45 48.68887 9.19851 1299 ft 13 kts 114°
2026-05-07 14:46 48.68820 9.19928 1294 ft 10 kts 112°
2026-05-07 14:46 48.68840 9.20038 1290 ft 13 kts 71°
2026-05-07 14:46 48.68868 9.20190 1285 ft 17 kts 73°
2026-05-07 14:46 48.68905 9.20371 1278 ft 21 kts 73°
2026-05-07 14:47 48.68946 9.20593 1270 ft 25 kts 75°
2026-05-07 14:47 48.68993 9.20845 1261 ft 28 kts 74°
2026-05-07 14:47 48.69049 9.21139 1253 ft 30 kts 74°
2026-05-07 14:47 48.69108 9.21450 1248 ft 30 kts 75°
2026-05-07 14:48 48.69164 9.21746 1244 ft 30 kts 73°
2026-05-07 14:48 48.69226 9.22065 1234 ft 33 kts 73°
2026-05-07 14:48 48.69290 9.22407 1227 ft 34 kts 74°
2026-05-07 14:48 48.69357 9.22758 1217 ft 34 kts 74°
2026-05-07 14:49 48.69424 9.23112 1206 ft 35 kts 73°
2026-05-07 14:49 48.69488 9.23452 1200 ft 34 kts 73°
2026-05-07 14:49 48.69554 9.23797 1195 ft 33 kts 73°
2026-05-07 14:49 48.69609 9.24094 1190 ft 16 kts 80°
2026-05-07 14:50 48.69577 9.24250 1185 ft 16 kts 122°
2026-05-07 14:50 48.69529 9.24305 1182 ft 8 kts 161°
2026-05-07 14:50 48.69508 9.24314 1181 ft 2 kts 166°
2026-05-07 14:50 48.69491 9.24320 1180 ft 0 kts 166°
2026-05-07 14:52 48.69481 9.24324 1180 ft 5 kts 168°
2026-05-07 14:52 48.69426 9.24319 1179 ft 11 kts 200°
2026-05-07 14:52 48.69376 9.24242 1180 ft 11 kts 246°
2026-05-07 14:52 48.69367 9.24200 1181 ft 0 kts 253°
2026-05-07 14:53 48.69351 9.24112 1182 ft 35 kts 255°
2026-05-07 14:53 48.69216 9.23404 1196 ft 101 kts 253°
2026-05-07 14:54 48.68976 9.22135 1231 ft 153 kts 254°
2026-05-07 14:54 48.68689 9.20609 1529 ft 171 kts 257°
2026-05-07 14:54 48.68402 9.18983 2065 ft 174 kts 257°
2026-05-07 14:54 48.68095 9.17258 2700 ft 176 kts 257°
2026-05-07 14:55 48.67784 9.15569 3170 ft 179 kts 256°
2026-05-07 14:55 48.67474 9.13914 3419 ft 190 kts 256°
2026-05-07 14:55 48.67155 9.12230 3666 ft 201 kts 256°
2026-05-07 14:55 48.66801 9.10378 3883 ft 216 kts 256°
2026-05-07 14:56 48.66398 9.08282 4156 ft 230 kts 255°
2026-05-07 14:56 48.66003 9.06236 4441 ft 244 kts 255°
2026-05-07 14:56 48.65585 9.04083 4736 ft 257 kts 255°
2026-05-07 14:56 48.65060 9.01391 5244 ft 266 kts 255°
2026-05-07 14:57 48.64558 8.98828 5897 ft 267 kts 255°
2026-05-07 14:57 48.64121 8.96594 6467 ft 268 kts 255°
2026-05-07 14:57 48.63637 8.94122 7091 ft 270 kts 255°
2026-05-07 14:57 48.63158 8.91678 7723 ft 271 kts 255°
2026-05-07 14:58 48.62660 8.89134 8352 ft 272 kts 255°
2026-05-07 14:58 48.62178 8.86730 8941 ft 273 kts 251°
2026-05-07 14:58 48.61451 8.84411 9524 ft 275 kts 239°
2026-05-07 14:58 48.60390 8.82303 10109 ft 277 kts 230°
2026-05-07 14:59 48.59222 8.80362 10528 ft 284 kts 229°
2026-05-07 14:59 48.57962 8.78320 10796 ft 297 kts 229°
2026-05-07 14:59 48.56547 8.76021 11077 ft 310 kts 229°
2026-05-07 14:59 48.55111 8.73672 11350 ft 322 kts 229°
2026-05-07 15:00 48.53732 8.71409 11594 ft 333 kts 229°
2026-05-07 15:00 48.52306 8.69171 11807 ft 345 kts 226°
2026-05-07 15:00 48.50818 8.67143 12018 ft 355 kts 221°
2026-05-07 15:00 48.49027 8.65057 12240 ft 366 kts 217°
2026-05-07 15:01 48.47109 8.63048 12468 ft 376 kts 216°
2026-05-07 15:01 48.44880 8.60749 12690 ft 387 kts 216°
2026-05-07 15:01 48.42793 8.58603 12900 ft 396 kts 216°
2026-05-07 15:01 48.40683 8.56433 13280 ft 400 kts 216°
2026-05-07 15:02 48.38594 8.54283 13675 ft 402 kts 216°
2026-05-07 15:02 48.36440 8.52065 14084 ft 405 kts 216°
2026-05-07 15:02 48.34192 8.49751 14489 ft 407 kts 216°
2026-05-07 15:02 48.32049 8.47548 14895 ft 409 kts 216°
2026-05-07 15:03 48.29920 8.45359 15293 ft 411 kts 216°
2026-05-07 15:03 48.27769 8.43150 15678 ft 412 kts 216°
2026-05-07 15:03 48.25471 8.40792 16059 ft 415 kts 216°
2026-05-07 15:03 48.23299 8.38565 16422 ft 416 kts 216°
2026-05-07 15:04 48.21144 8.36360 16763 ft 418 kts 216°
2026-05-07 15:04 48.18938 8.34104 17101 ft 420 kts 215°
2026-05-07 15:04 48.16512 8.31793 17451 ft 423 kts 212°
2026-05-07 15:04 48.14240 8.29873 17754 ft 426 kts 210°
2026-05-07 15:05 48.11864 8.27943 18067 ft 428 kts 210°
2026-05-07 15:05 48.09356 8.25908 18386 ft 430 kts 210°
2026-05-07 15:05 48.06717 8.23771 18718 ft 432 kts 210°
2026-05-07 15:05 48.04246 8.21771 19010 ft 434 kts 210°
2026-05-07 15:06 48.01762 8.19761 19302 ft 436 kts 210°
2026-05-07 15:06 47.99200 8.17691 19607 ft 437 kts 210°
2026-05-07 15:06 47.96800 8.15752 19880 ft 439 kts 210°
2026-05-07 15:06 47.94136 8.13603 20171 ft 440 kts 210°
2026-05-07 15:07 47.91637 8.11589 20430 ft 442 kts 210°
2026-05-07 15:07 47.89068 8.09520 20718 ft 443 kts 210°
2026-05-07 15:07 47.86377 8.07356 21005 ft 444 kts 210°
2026-05-07 15:07 47.83643 8.05160 21284 ft 446 kts 210°
2026-05-07 15:08 47.81041 8.03073 21519 ft 448 kts 210°
2026-05-07 15:08 47.78536 8.01066 21750 ft 449 kts 210°
2026-05-07 15:08 47.75751 7.98838 22005 ft 451 kts 210°
2026-05-07 15:08 47.72982 7.96623 22241 ft 452 kts 210°
2026-05-07 15:09 47.70271 7.94458 22484 ft 453 kts 210°
2026-05-07 15:09 47.67546 7.92284 22820 ft 452 kts 210°
2026-05-07 15:09 47.64751 7.90058 23183 ft 451 kts 210°
2026-05-07 15:09 47.61945 7.87825 23561 ft 449 kts 210°
2026-05-07 15:10 47.59043 7.85521 23939 ft 448 kts 210°
2026-05-07 15:10 47.56225 7.83286 24286 ft 447 kts 210°
2026-05-07 15:10 47.53451 7.81087 24624 ft 446 kts 210°
2026-05-07 15:10 47.50701 7.78910 24973 ft 444 kts 210°
2026-05-07 15:11 47.47966 7.76746 25301 ft 444 kts 210°
2026-05-07 15:11 47.45276 7.74618 25603 ft 443 kts 210°
2026-05-07 15:11 47.42553 7.72468 25899 ft 442 kts 210°
2026-05-07 15:11 47.39760 7.70266 26202 ft 442 kts 210°
2026-05-07 15:12 47.36957 7.68060 26493 ft 441 kts 210°
2026-05-07 15:12 47.34110 7.65808 26769 ft 441 kts 212°
2026-05-07 15:12 47.31508 7.63282 26989 ft 439 kts 220°
2026-05-07 15:12 47.29106 7.60186 27258 ft 437 kts 227°
2026-05-07 15:13 47.27028 7.56709 27559 ft 434 kts 233°
2026-05-07 15:13 47.25007 7.52959 27879 ft 432 kts 234°
2026-05-07 15:13 47.23016 7.49211 28201 ft 431 kts 234°
2026-05-07 15:13 47.21052 7.45523 28535 ft 430 kts 234°
2026-05-07 15:14 47.19043 7.41782 28840 ft 429 kts 234°
2026-05-07 15:14 47.17110 7.38199 29141 ft 428 kts 234°
2026-05-07 15:14 47.15148 7.34573 29452 ft 427 kts 233°
2026-05-07 15:14 47.13189 7.30960 29744 ft 426 kts 234°
2026-05-07 15:15 47.11354 7.27576 30041 ft 425 kts 234°
2026-05-07 15:15 47.09503 7.24165 30324 ft 424 kts 234°
2026-05-07 15:15 47.07589 7.20643 30659 ft 423 kts 234°
2026-05-07 15:15 47.05751 7.17264 30927 ft 422 kts 234°
2026-05-07 15:16 47.03932 7.13926 31141 ft 422 kts 234°
2026-05-07 15:16 47.02087 7.10548 31374 ft 421 kts 234°
2026-05-07 15:16 47.00148 7.06999 31619 ft 421 kts 234°
2026-05-07 15:16 46.98352 7.03715 31876 ft 419 kts 234°
2026-05-07 15:17 46.96522 7.00371 32156 ft 418 kts 234°
2026-05-07 15:17 46.94721 6.97084 32412 ft 416 kts 234°
2026-05-07 15:17 46.92870 6.93714 32671 ft 415 kts 234°
2026-05-07 15:17 46.91068 6.90437 32905 ft 414 kts 234°
2026-05-07 15:18 46.89239 6.87118 33144 ft 413 kts 234°
2026-05-07 15:18 46.87383 6.83754 33363 ft 413 kts 234°
2026-05-07 15:18 46.85513 6.80366 33538 ft 413 kts 234°
2026-05-07 15:18 46.83678 6.77048 33698 ft 414 kts 234°
2026-05-07 15:19 46.82463 6.74850 33813 ft 414 kts 234°
2026-05-07 15:19 46.80055 6.70497 34048 ft 414 kts 234°
2026-05-07 15:19 46.78164 6.67085 34210 ft 414 kts 234°
2026-05-07 15:19 46.76347 6.63811 34391 ft 414 kts 234°
2026-05-07 15:20 46.74547 6.60574 34571 ft 414 kts 234°
2026-05-07 15:20 46.72707 6.57300 34716 ft 414 kts 233°
2026-05-07 15:20 46.70728 6.54018 34829 ft 415 kts 232°
2026-05-07 15:20 46.68818 6.50870 34936 ft 415 kts 232°
2026-05-07 15:21 46.64982 6.44548 34960 ft 416 kts 232°
2026-05-07 15:21 46.61075 6.38125 34968 ft 416 kts 231°
2026-05-07 15:22 46.57078 6.31569 34962 ft 416 kts 231°
2026-05-07 15:22 46.53196 6.25223 34971 ft 416 kts 231°
2026-05-07 15:23 46.49298 6.18859 34967 ft 416 kts 231°
2026-05-07 15:23 46.45403 6.12514 34966 ft 417 kts 231°
2026-05-07 15:24 46.41512 6.06193 34961 ft 416 kts 231°
2026-05-07 15:24 46.37608 5.99859 34960 ft 416 kts 231°
2026-05-07 15:25 46.33701 5.93543 34962 ft 414 kts 231°
2026-05-07 15:25 46.29980 5.87198 34959 ft 413 kts 235°
2026-05-07 15:26 46.26610 5.80307 34959 ft 412 kts 238°
2026-05-07 15:26 46.23384 5.73501 34953 ft 412 kts 238°
2026-05-07 15:27 46.20073 5.66532 34954 ft 412 kts 238°
2026-05-07 15:27 46.16851 5.59770 34958 ft 412 kts 238°
2026-05-07 15:28 46.13517 5.52795 34953 ft 412 kts 238°
2026-05-07 15:28 46.10263 5.46013 34956 ft 412 kts 238°
2026-05-07 15:29 46.06972 5.39161 34953 ft 412 kts 238°
2026-05-07 15:29 46.03662 5.32287 34949 ft 411 kts 237°
2026-05-07 15:30 46.00343 5.25406 34952 ft 411 kts 237°
2026-05-07 15:30 45.97090 5.18680 34954 ft 411 kts 237°
2026-05-07 15:31 45.93798 5.11892 34947 ft 410 kts 237°
2026-05-07 15:31 45.90545 5.05194 34956 ft 410 kts 237°
2026-05-07 15:32 45.87080 4.98082 34953 ft 411 kts 237°
2026-05-07 15:32 45.83814 4.91387 34956 ft 410 kts 237°
2026-05-07 15:33 45.80477 4.84570 34949 ft 410 kts 237°
2026-05-07 15:33 45.77214 4.77920 34955 ft 410 kts 236°
2026-05-07 15:34 45.73888 4.71159 34949 ft 410 kts 236°
2026-05-07 15:34 45.70606 4.64501 34952 ft 410 kts 236°
2026-05-07 15:35 45.67245 4.57698 34942 ft 411 kts 236°
2026-05-07 15:35 45.63955 4.51062 34951 ft 411 kts 236°
2026-05-07 15:36 45.60605 4.44313 34950 ft 411 kts 236°
2026-05-07 15:36 45.57296 4.37658 34957 ft 411 kts 236°
2026-05-07 15:37 45.53915 4.30880 34957 ft 410 kts 235°
2026-05-07 15:37 45.50609 4.24266 34960 ft 410 kts 235°
2026-05-07 15:38 45.47262 4.17582 34964 ft 411 kts 235°
2026-05-07 15:38 45.43933 4.10952 34968 ft 411 kts 235°
2026-05-07 15:39 45.40553 4.04241 34971 ft 412 kts 235°
2026-05-07 15:39 45.37222 3.97706 34968 ft 412 kts 233°
2026-05-07 15:40 45.33478 3.91435 34966 ft 412 kts 229°
2026-05-07 15:40 45.29634 3.85403 34969 ft 412 kts 229°
2026-05-07 15:41 45.25763 3.79337 34966 ft 412 kts 229°
2026-05-07 15:41 45.21924 3.73333 34970 ft 412 kts 229°
2026-05-07 15:42 45.18039 3.67274 34978 ft 413 kts 229°
2026-05-07 15:42 45.14173 3.61258 34976 ft 413 kts 229°
2026-05-07 15:43 45.10287 3.55221 34970 ft 413 kts 229°
2026-05-07 15:43 45.06406 3.49207 34969 ft 413 kts 229°
2026-05-07 15:44 45.02513 3.43187 34969 ft 413 kts 229°
2026-05-07 15:44 44.98653 3.37230 34961 ft 412 kts 229°
2026-05-07 15:45 44.95346 3.32139 34960 ft 412 kts 228°
2026-05-07 15:45 44.90857 3.25239 34957 ft 412 kts 228°
2026-05-07 15:46 44.84952 3.16187 34956 ft 412 kts 227°
2026-05-07 15:47 44.81024 3.10184 34954 ft 412 kts 227°
2026-05-07 15:47 44.77156 3.04288 34953 ft 412 kts 227°
2026-05-07 15:48 44.73218 2.98297 34951 ft 412 kts 227°
2026-05-07 15:48 44.69340 2.92406 34950 ft 412 kts 227°
2026-05-07 15:49 44.65424 2.86473 34947 ft 412 kts 227°
2026-05-07 15:49 44.61546 2.80609 34944 ft 411 kts 227°
2026-05-07 15:50 44.57596 2.74649 34942 ft 411 kts 227°
2026-05-07 15:50 44.53707 2.68792 34939 ft 411 kts 227°
2026-05-07 15:51 44.49779 2.62890 34939 ft 411 kts 227°
2026-05-07 15:51 44.45891 2.57063 34939 ft 411 kts 227°
2026-05-07 15:52 44.41954 2.51173 34942 ft 411 kts 227°
2026-05-07 15:52 44.38055 2.45351 34943 ft 411 kts 227°
2026-05-07 15:53 44.34118 2.39483 34943 ft 411 kts 227°
2026-05-07 15:53 44.30223 2.33692 34940 ft 411 kts 226°
2026-05-07 15:54 44.26290 2.27856 34936 ft 411 kts 226°
2026-05-07 15:54 44.22382 2.22070 34934 ft 411 kts 226°
2026-05-07 15:55 44.18423 2.16219 34933 ft 412 kts 226°
2026-05-07 15:55 44.14517 2.10457 34931 ft 411 kts 226°
2026-05-07 15:56 44.10593 2.04682 34929 ft 411 kts 226°
2026-05-07 15:56 44.06742 1.99026 34929 ft 412 kts 226°
2026-05-07 15:57 44.02777 1.93215 34928 ft 412 kts 226°
2026-05-07 15:57 43.98863 1.87485 34927 ft 412 kts 226°
2026-05-07 15:58 43.94883 1.81683 34925 ft 412 kts 226°
2026-05-07 15:58 43.90857 1.76008 34917 ft 412 kts 225°
2026-05-07 15:59 43.86681 1.70158 34912 ft 412 kts 225°
2026-05-07 15:59 43.82682 1.64555 34906 ft 410 kts 225°
2026-05-07 16:00 43.78595 1.58835 34907 ft 410 kts 225°
2026-05-07 16:00 43.74813 1.53550 34906 ft 409 kts 225°
2026-05-07 16:01 43.70790 1.47938 34906 ft 409 kts 225°
2026-05-07 16:01 43.66779 1.42352 34907 ft 409 kts 225°
2026-05-07 16:02 43.62759 1.36766 35079 ft 410 kts 225°
2026-05-07 16:02 43.60771 1.34009 35243 ft 408 kts 224°
2026-05-07 16:02 43.58767 1.31234 35387 ft 408 kts 224°
2026-05-07 16:02 43.56790 1.28497 35502 ft 408 kts 224°
2026-05-07 16:03 43.54771 1.25703 35596 ft 408 kts 224°
2026-05-07 16:03 43.50757 1.20160 35769 ft 409 kts 224°
2026-05-07 16:04 43.46741 1.14625 35959 ft 409 kts 224°
2026-05-07 16:04 43.42744 1.09126 36122 ft 409 kts 224°
2026-05-07 16:05 43.38759 1.03656 36319 ft 410 kts 224°
2026-05-07 16:05 43.34795 0.98223 36532 ft 410 kts 224°
2026-05-07 16:05 43.32794 0.95486 36641 ft 410 kts 224°
2026-05-07 16:06 43.30803 0.92764 36730 ft 410 kts 224°
2026-05-07 16:06 43.26828 0.87337 36908 ft 411 kts 224°
2026-05-07 16:07 43.22795 0.81844 36913 ft 410 kts 224°
2026-05-07 16:07 43.18762 0.76359 36911 ft 411 kts 224°
2026-05-07 16:08 43.14687 0.70832 36915 ft 411 kts 224°
2026-05-07 16:08 43.10639 0.65348 36916 ft 411 kts 224°
2026-05-07 16:09 43.06556 0.59829 36928 ft 411 kts 224°
2026-05-07 16:09 43.02501 0.54360 36927 ft 411 kts 224°
2026-05-07 16:10 42.98412 0.48853 36929 ft 410 kts 224°
2026-05-07 16:10 42.94374 0.43430 36930 ft 410 kts 224°
2026-05-07 16:11 42.90240 0.37885 36935 ft 410 kts 224°
2026-05-07 16:11 42.86153 0.32414 36929 ft 411 kts 224°
2026-05-07 16:12 42.82046 0.26925 36920 ft 411 kts 224°
2026-05-07 16:12 42.77964 0.21479 36923 ft 411 kts 224°
2026-05-07 16:13 42.73817 0.16029 36924 ft 412 kts 222°
2026-05-07 16:13 42.69430 0.11074 36922 ft 411 kts 218°
2026-05-07 16:14 42.64941 0.06226 36921 ft 411 kts 218°
2026-05-07 16:14 42.60450 0.01381 36919 ft 411 kts 218°
2026-05-07 16:15 42.55953 -0.03462 36927 ft 411 kts 218°
2026-05-07 16:15 42.53712 -0.05872 37050 ft 411 kts 218°
2026-05-07 16:15 42.51471 -0.08279 36992 ft 410 kts 218°
2026-05-07 16:16 42.46962 -0.13116 36941 ft 410 kts 218°
2026-05-07 16:16 42.42677 -0.17704 36926 ft 410 kts 218°
2026-05-07 16:17 42.38176 -0.22513 36925 ft 411 kts 218°
2026-05-07 16:17 42.33683 -0.27307 36921 ft 411 kts 219°
2026-05-07 16:18 42.29183 -0.32099 36918 ft 412 kts 218°
2026-05-07 16:18 42.24714 -0.36847 36919 ft 412 kts 218°
2026-05-07 16:19 42.20163 -0.41676 36920 ft 413 kts 218°
2026-05-07 16:19 42.15659 -0.46443 36924 ft 413 kts 219°
2026-05-07 16:20 42.11105 -0.51255 36911 ft 413 kts 219°
2026-05-07 16:20 42.06629 -0.55978 36905 ft 411 kts 219°
2026-05-07 16:21 42.02093 -0.60754 36904 ft 411 kts 219°
2026-05-07 16:21 41.97572 -0.65503 36898 ft 412 kts 218°
2026-05-07 16:22 41.92919 -0.70385 36901 ft 414 kts 218°
2026-05-07 16:22 41.88346 -0.75173 36909 ft 414 kts 218°
2026-05-07 16:23 41.83659 -0.80070 36894 ft 415 kts 218°
2026-05-07 16:23 41.79102 -0.84823 36887 ft 416 kts 218°
2026-05-07 16:24 41.74486 -0.89628 36893 ft 416 kts 218°
2026-05-07 16:24 41.69926 -0.94367 36886 ft 416 kts 218°
2026-05-07 16:25 41.65263 -0.99205 36881 ft 417 kts 219°
2026-05-07 16:25 41.60704 -1.03925 36886 ft 417 kts 219°
2026-05-07 16:26 41.56056 -1.08729 36887 ft 416 kts 219°
2026-05-07 16:26 41.51489 -1.13443 36894 ft 417 kts 219°
2026-05-07 16:27 41.46829 -1.18241 36909 ft 417 kts 219°
2026-05-07 16:27 41.42258 -1.22941 36915 ft 418 kts 219°
2026-05-07 16:28 41.37582 -1.27739 36919 ft 419 kts 219°
2026-05-07 16:28 41.32981 -1.32453 36924 ft 418 kts 219°
2026-05-07 16:29 41.28310 -1.37227 36931 ft 419 kts 219°
2026-05-07 16:29 41.23577 -1.41645 36932 ft 419 kts 217°
2026-05-07 16:30 41.18682 -1.46092 36929 ft 419 kts 217°
2026-05-07 16:30 41.13880 -1.50433 36932 ft 419 kts 217°
2026-05-07 16:31 41.08991 -1.54845 36937 ft 421 kts 217°
2026-05-07 16:31 41.04156 -1.59206 36940 ft 420 kts 217°
2026-05-07 16:32 40.99269 -1.63604 36940 ft 420 kts 217°
2026-05-07 16:32 40.94405 -1.67975 36944 ft 421 kts 216°
2026-05-07 16:33 40.89489 -1.72384 36943 ft 421 kts 217°
2026-05-07 16:33 40.84601 -1.76763 36945 ft 421 kts 217°
2026-05-07 16:34 40.79717 -1.81130 36947 ft 420 kts 217°
2026-05-07 16:34 40.74895 -1.85428 36949 ft 421 kts 217°
2026-05-07 16:35 40.69980 -1.89795 36947 ft 421 kts 217°
2026-05-07 16:35 40.65135 -1.94096 36942 ft 421 kts 217°
2026-05-07 16:36 40.60284 -1.98398 36938 ft 421 kts 218°
2026-05-07 16:36 40.55439 -2.02691 36939 ft 421 kts 218°
2026-05-07 16:37 40.50536 -2.07021 36942 ft 421 kts 218°
2026-05-07 16:37 40.45694 -2.11289 36935 ft 421 kts 218°
2026-05-07 16:38 40.40811 -2.15587 36932 ft 420 kts 218°
2026-05-07 16:38 40.35987 -2.19819 36932 ft 420 kts 218°
2026-05-07 16:39 40.31121 -2.24080 36936 ft 420 kts 218°
2026-05-07 16:39 40.26261 -2.28337 36932 ft 420 kts 219°
2026-05-07 16:40 40.21376 -2.32606 36933 ft 420 kts 218°
2026-05-07 16:40 40.18942 -2.34729 36811 ft 420 kts 219°
2026-05-07 16:40 40.16515 -2.36847 36886 ft 421 kts 219°
2026-05-07 16:41 40.11605 -2.41127 36909 ft 422 kts 219°
2026-05-07 16:41 40.07114 -2.45032 36935 ft 422 kts 219°
2026-05-07 16:42 40.02303 -2.49209 36925 ft 422 kts 219°
2026-05-07 16:42 39.97455 -2.53408 36936 ft 421 kts 219°
2026-05-07 16:43 39.92570 -2.57637 36940 ft 420 kts 219°
2026-05-07 16:43 39.87712 -2.61834 36937 ft 420 kts 220°
2026-05-07 16:44 39.82854 -2.66024 36940 ft 421 kts 219°
2026-05-07 16:44 39.78004 -2.70204 36942 ft 422 kts 219°
2026-05-07 16:45 39.73116 -2.74406 36935 ft 422 kts 219°
2026-05-07 16:45 39.68232 -2.78595 36933 ft 421 kts 220°
2026-05-07 16:46 39.63354 -2.82771 36949 ft 422 kts 220°
2026-05-07 16:46 39.58469 -2.86946 36926 ft 420 kts 220°
2026-05-07 16:47 39.53592 -2.91112 36918 ft 420 kts 220°
2026-05-07 16:47 39.48737 -2.95254 36952 ft 419 kts 220°
2026-05-07 16:48 39.43887 -2.99353 36925 ft 420 kts 219°
2026-05-07 16:48 39.39000 -3.02866 36905 ft 426 kts 213°
2026-05-07 16:49 39.33700 -3.05790 36896 ft 431 kts 208°
2026-05-07 16:49 39.28129 -3.08492 36911 ft 430 kts 209°
2026-05-07 16:50 39.22554 -3.11202 36906 ft 431 kts 209°
2026-05-07 16:50 39.16991 -3.13903 36899 ft 430 kts 208°
2026-05-07 16:51 39.11425 -3.16601 36899 ft 431 kts 209°
2026-05-07 16:51 39.05939 -3.19257 36907 ft 430 kts 209°
2026-05-07 16:52 39.00426 -3.21918 36907 ft 431 kts 209°
2026-05-07 16:52 38.94938 -3.24556 36911 ft 430 kts 209°
2026-05-07 16:53 38.89354 -3.27239 36908 ft 431 kts 209°
2026-05-07 16:53 38.83795 -3.29908 36911 ft 430 kts 209°
2026-05-07 16:54 38.78306 -3.32538 36902 ft 429 kts 209°
2026-05-07 16:54 38.72866 -3.35139 36906 ft 429 kts 209°
2026-05-07 16:55 38.67406 -3.37749 36909 ft 429 kts 209°
2026-05-07 16:55 38.61966 -3.40343 36907 ft 428 kts 210°
2026-05-07 16:56 38.56448 -3.42971 36907 ft 429 kts 210°
2026-05-07 16:56 38.48136 -3.46922 36910 ft 428 kts 210°
2026-05-07 16:57 38.42534 -3.49579 36902 ft 427 kts 210°
2026-05-07 16:57 38.37022 -3.52191 36902 ft 428 kts 210°
2026-05-07 16:58 38.31399 -3.54849 36897 ft 427 kts 210°
2026-05-07 16:58 38.25849 -3.57470 36895 ft 427 kts 210°
2026-05-07 16:59 38.20234 -3.60115 36896 ft 426 kts 210°
2026-05-07 16:59 38.14726 -3.62773 36896 ft 423 kts 212°
2026-05-07 17:00 38.09274 -3.65836 36898 ft 421 kts 213°
2026-05-07 17:00 38.03946 -3.68853 36895 ft 420 kts 213°
2026-05-07 17:01 37.98577 -3.71887 36893 ft 420 kts 213°
2026-05-07 17:01 37.93244 -3.74897 36895 ft 420 kts 213°
2026-05-07 17:02 37.87801 -3.77967 36885 ft 420 kts 213°
2026-05-07 17:02 37.82461 -3.80971 36893 ft 421 kts 213°
2026-05-07 17:03 37.77037 -3.84017 36896 ft 420 kts 213°
2026-05-07 17:03 37.71779 -3.86965 36893 ft 419 kts 213°
2026-05-07 17:04 37.66417 -3.89966 36902 ft 419 kts 213°
2026-05-07 17:04 37.61102 -3.92938 36901 ft 419 kts 213°
2026-05-07 17:05 37.55757 -3.95922 36909 ft 418 kts 213°
2026-05-07 17:05 37.50418 -3.98898 36913 ft 419 kts 213°
2026-05-07 17:06 37.45074 -4.01873 36903 ft 418 kts 213°
2026-05-07 17:06 37.39776 -4.04816 36900 ft 419 kts 212°
2026-05-07 17:07 37.35300 -4.07300 36900 ft 418 kts 212°
2026-05-07 17:07 37.29101 -4.10735 36894 ft 418 kts 212°
2026-05-07 17:08 37.23720 -4.13709 36893 ft 419 kts 212°
2026-05-07 17:08 37.18418 -4.16636 36896 ft 419 kts 212°
2026-05-07 17:09 37.13058 -4.19593 36894 ft 419 kts 212°
2026-05-07 17:09 37.07709 -4.22537 36902 ft 419 kts 212°
2026-05-07 17:10 37.02375 -4.25471 36905 ft 418 kts 212°
2026-05-07 17:10 36.97081 -4.28377 36913 ft 420 kts 212°
2026-05-07 17:11 36.91919 -4.31206 36916 ft 419 kts 212°
2026-05-07 17:11 36.87048 -4.33873 36906 ft 420 kts 212°
2026-05-07 17:12 36.82268 -4.36620 36898 ft 416 kts 215°
2026-05-07 17:12 36.77501 -4.40042 36892 ft 411 kts 220°
2026-05-07 17:13 36.72733 -4.43838 36881 ft 411 kts 220°
2026-05-07 17:13 36.67930 -4.47658 36880 ft 411 kts 220°
2026-05-07 17:14 36.63134 -4.51462 36874 ft 410 kts 220°
2026-05-07 17:14 36.58347 -4.55257 36880 ft 411 kts 220°
2026-05-07 17:15 36.53536 -4.59063 36880 ft 410 kts 220°
2026-05-07 17:15 36.48734 -4.62857 36883 ft 410 kts 220°
2026-05-07 17:16 36.43910 -4.66662 36876 ft 411 kts 220°
2026-05-07 17:16 36.39095 -4.70454 36880 ft 411 kts 219°
2026-05-07 17:17 36.34278 -4.74241 36872 ft 411 kts 220°
2026-05-07 17:17 36.29417 -4.78061 36875 ft 412 kts 220°
2026-05-07 17:18 36.24578 -4.81856 37111 ft 412 kts 219°
2026-05-07 17:18 36.22172 -4.83741 36939 ft 410 kts 220°
2026-05-07 17:18 36.20571 -4.84994 36906 ft 411 kts 220°
2026-05-07 17:19 36.14968 -4.89375 36875 ft 410 kts 219°
2026-05-07 17:19 36.10179 -4.93156 36875 ft 410 kts 220°
2026-05-07 17:20 36.05383 -4.96953 36890 ft 410 kts 220°
2026-05-07 17:20 36.00826 -5.00557 36874 ft 410 kts 220°
2026-05-07 17:21 35.96034 -5.04338 36874 ft 411 kts 220°
2026-05-07 17:21 35.91377 -5.08010 36876 ft 409 kts 220°
2026-05-07 17:22 35.86559 -5.11801 36879 ft 410 kts 220°
2026-05-07 17:22 35.81953 -5.15746 36883 ft 405 kts 223°
2026-05-07 17:23 35.77436 -5.19875 36881 ft 405 kts 224°
2026-05-07 17:23 35.72949 -5.23955 36884 ft 406 kts 223°
2026-05-07 17:24 35.68468 -5.28009 36886 ft 405 kts 223°
2026-05-07 17:24 35.64169 -5.31886 36891 ft 405 kts 223°
2026-05-07 17:25 35.59832 -5.35792 36893 ft 404 kts 223°
2026-05-07 17:25 35.55570 -5.39622 36893 ft 405 kts 223°
2026-05-07 17:26 35.51096 -5.43637 36896 ft 405 kts 223°
2026-05-07 17:26 35.46671 -5.47603 36905 ft 404 kts 223°
2026-05-07 17:27 35.42298 -5.51516 36916 ft 404 kts 223°
2026-05-07 17:27 35.38091 -5.55273 36920 ft 405 kts 223°
2026-05-07 17:28 35.33583 -5.59297 36919 ft 404 kts 223°
2026-05-07 17:28 35.29195 -5.63207 36923 ft 404 kts 223°
2026-05-07 17:29 35.24741 -5.67169 36923 ft 404 kts 222°
2026-05-07 17:29 35.20331 -5.71089 36919 ft 404 kts 222°
2026-05-07 17:30 35.15844 -5.75073 36909 ft 405 kts 222°
2026-05-07 17:30 35.11368 -5.79040 36911 ft 405 kts 222°
2026-05-07 17:31 35.06858 -5.83032 36912 ft 404 kts 222°
2026-05-07 17:31 35.02346 -5.87019 36912 ft 404 kts 222°
2026-05-07 17:32 34.97809 -5.91023 36911 ft 404 kts 222°
2026-05-07 17:32 34.93727 -5.94622 36907 ft 404 kts 222°
2026-05-07 17:33 34.89593 -5.98260 36900 ft 405 kts 222°
2026-05-07 17:33 34.85376 -6.01969 36896 ft 405 kts 222°
2026-05-07 17:34 34.81163 -6.05670 36893 ft 404 kts 222°
2026-05-07 17:34 34.76723 -6.09562 36893 ft 404 kts 222°
2026-05-07 17:35 34.72525 -6.13239 36895 ft 404 kts 222°
2026-05-07 17:35 34.68005 -6.17195 36894 ft 403 kts 222°
2026-05-07 17:36 34.63482 -6.21147 36676 ft 405 kts 222°
2026-05-07 17:36 34.61277 -6.23073 36379 ft 402 kts 222°
2026-05-07 17:36 34.59016 -6.25043 36074 ft 400 kts 222°
2026-05-07 17:37 34.56761 -6.27004 35770 ft 398 kts 221°
2026-05-07 17:37 34.54471 -6.28862 35467 ft 399 kts 219°
2026-05-07 17:37 34.52080 -6.30590 35165 ft 402 kts 216°
2026-05-07 17:37 34.49617 -6.32162 34866 ft 405 kts 213°
2026-05-07 17:38 34.47062 -6.33589 34565 ft 408 kts 210°
2026-05-07 17:38 34.44438 -6.34849 34269 ft 412 kts 207°
2026-05-07 17:38 34.41713 -6.35955 33982 ft 416 kts 204°
2026-05-07 17:38 34.38970 -6.36925 33717 ft 417 kts 203°
2026-05-07 17:39 34.36205 -6.37896 33452 ft 417 kts 203°
2026-05-07 17:39 34.33431 -6.38869 33187 ft 418 kts 203°
2026-05-07 17:39 34.30646 -6.39846 32922 ft 419 kts 203°
2026-05-07 17:39 34.27874 -6.40819 32659 ft 420 kts 202°
2026-05-07 17:40 34.25090 -6.41795 32395 ft 420 kts 202°
2026-05-07 17:40 34.22341 -6.42758 32136 ft 420 kts 202°
2026-05-07 17:40 34.19608 -6.43715 31878 ft 420 kts 202°
2026-05-07 17:40 34.16909 -6.44659 31624 ft 421 kts 202°
2026-05-07 17:41 34.14183 -6.45613 31367 ft 421 kts 202°
2026-05-07 17:41 34.11489 -6.46556 31115 ft 421 kts 202°
2026-05-07 17:41 34.08793 -6.47499 30863 ft 422 kts 202°
2026-05-07 17:41 34.06050 -6.48456 30607 ft 422 kts 202°
2026-05-07 17:42 34.03264 -6.49428 30347 ft 422 kts 202°
2026-05-07 17:42 34.00553 -6.50569 30086 ft 418 kts 208°
2026-05-07 17:42 33.97954 -6.52066 29825 ft 415 kts 214°
2026-05-07 17:42 33.95523 -6.53886 29561 ft 412 kts 219°
2026-05-07 17:43 33.93254 -6.56027 29149 ft 409 kts 225°
2026-05-07 17:43 33.91189 -6.58359 28597 ft 409 kts 227°
2026-05-07 17:43 33.89175 -6.60722 27927 ft 410 kts 227°
2026-05-07 17:43 33.87140 -6.63123 27207 ft 410 kts 227°
2026-05-07 17:44 33.85115 -6.65508 26439 ft 411 kts 226°
2026-05-07 17:44 33.82937 -6.67757 25523 ft 418 kts 220°
2026-05-07 17:44 33.80596 -6.69827 24462 ft 422 kts 218°
2026-05-07 17:44 33.78266 -6.71828 23283 ft 416 kts 218°
2026-05-07 17:45 33.75943 -6.73830 22232 ft 410 kts 218°
2026-05-07 17:45 33.73662 -6.75812 21292 ft 402 kts 218°
2026-05-07 17:45 33.71427 -6.77767 20656 ft 398 kts 218°
2026-05-07 17:45 33.69221 -6.79706 19994 ft 395 kts 219°
2026-05-07 17:46 33.67116 -6.81564 19394 ft 392 kts 218°
2026-05-07 17:46 33.64988 -6.83444 18762 ft 390 kts 218°
2026-05-07 17:46 33.62865 -6.85322 18113 ft 389 kts 218°
2026-05-07 17:46 33.60760 -6.87184 17511 ft 388 kts 218°
2026-05-07 17:47 33.58661 -6.89043 16889 ft 388 kts 218°
2026-05-07 17:47 33.56590 -6.90874 16221 ft 388 kts 218°
2026-05-07 17:47 33.54456 -6.92761 15553 ft 388 kts 217°
2026-05-07 17:47 33.52230 -6.94727 14875 ft 387 kts 217°
2026-05-07 17:48 33.50064 -6.96637 14230 ft 385 kts 216°
2026-05-07 17:48 33.47945 -6.98504 13571 ft 384 kts 216°
2026-05-07 17:48 33.45804 -7.00390 12944 ft 382 kts 216°
2026-05-07 17:48 33.43587 -7.02339 12269 ft 380 kts 216°
2026-05-07 17:49 33.41507 -7.04167 11846 ft 371 kts 216°
2026-05-07 17:49 33.39444 -7.05980 11496 ft 357 kts 216°
2026-05-07 17:49 33.37541 -7.07651 11268 ft 331 kts 216°
2026-05-07 17:49 33.35748 -7.09227 11033 ft 307 kts 216°
2026-05-07 17:50 33.34143 -7.10636 10827 ft 285 kts 216°
2026-05-07 17:50 33.32616 -7.11978 10639 ft 271 kts 216°
2026-05-07 17:50 33.31096 -7.13312 10467 ft 268 kts 216°
2026-05-07 17:50 33.29642 -7.14588 10305 ft 266 kts 216°
2026-05-07 17:51 33.28188 -7.15863 10150 ft 264 kts 216°
2026-05-07 17:51 33.26740 -7.17133 10012 ft 261 kts 216°
2026-05-07 17:51 33.25332 -7.18366 9915 ft 258 kts 216°
2026-05-07 17:51 33.23862 -7.19654 9640 ft 259 kts 216°
2026-05-07 17:52 33.22409 -7.20924 9245 ft 260 kts 216°
2026-05-07 17:52 33.20982 -7.22173 8867 ft 261 kts 216°
2026-05-07 17:52 33.19516 -7.23454 8493 ft 261 kts 216°
2026-05-07 17:52 33.18058 -7.24730 8132 ft 261 kts 216°
2026-05-07 17:53 33.16626 -7.25985 7770 ft 261 kts 217°
2026-05-07 17:53 33.15395 -7.27559 7378 ft 264 kts 238°
2026-05-07 17:53 33.14767 -7.29614 7012 ft 266 kts 257°
2026-05-07 17:53 33.14437 -7.31780 6665 ft 266 kts 259°
2026-05-07 17:54 33.14131 -7.33933 6324 ft 265 kts 259°
2026-05-07 17:54 33.13819 -7.36059 6002 ft 265 kts 260°
2026-05-07 17:54 33.13495 -7.38201 5690 ft 264 kts 260°
2026-05-07 17:54 33.13158 -7.40367 5394 ft 274 kts 261°
2026-05-07 17:55 33.12809 -7.42611 5047 ft 274 kts 261°
2026-05-07 17:55 33.12457 -7.44852 4655 ft 273 kts 261°
2026-05-07 17:55 33.12112 -7.47051 4267 ft 273 kts 263°
2026-05-07 17:55 33.12176 -7.49309 3912 ft 263 kts 294°
2026-05-07 17:56 33.13211 -7.50990 3918 ft 255 kts 324°
2026-05-07 17:56 33.14785 -7.51878 3927 ft 243 kts 344°
2026-05-07 17:56 33.16317 -7.52340 3923 ft 228 kts 348°
2026-05-07 17:56 33.17798 -7.52758 3906 ft 213 kts 347°
2026-05-07 17:57 33.19167 -7.53188 3863 ft 198 kts 346°
2026-05-07 17:57 33.20040 -7.53478 3682 ft 194 kts 345°
2026-05-07 17:57 33.21719 -7.54052 3327 ft 184 kts 345°
2026-05-07 17:57 33.22886 -7.54455 3069 ft 170 kts 345°
2026-05-07 17:58 33.23959 -7.54825 2863 ft 153 kts 345°
2026-05-07 17:58 33.24911 -7.55154 2665 ft 142 kts 345°
2026-05-07 17:58 33.25787 -7.55455 2490 ft 137 kts 344°
2026-05-07 17:58 33.26659 -7.55756 2332 ft 136 kts 346°
2026-05-07 17:59 33.27535 -7.56055 2170 ft 136 kts 345°
2026-05-07 17:59 33.28403 -7.56352 2007 ft 135 kts 345°
2026-05-07 17:59 33.29279 -7.56654 1842 ft 135 kts 347°
2026-05-07 17:59 33.30174 -7.56936 1644 ft 135 kts 346°
2026-05-07 18:00 33.31044 -7.57264 1517 ft 135 kts 345°
2026-05-07 18:00 33.31935 -7.57590 1298 ft 133 kts 347°
2026-05-07 18:00 33.32806 -7.57877 1131 ft 134 kts 347°
2026-05-07 18:00 33.33686 -7.58171 956 ft 133 kts 347°
2026-05-07 18:01 33.34562 -7.58466 792 ft 132 kts 346°
2026-05-07 18:01 33.35410 -7.58752 660 ft 128 kts 345°